Tracking 22879 objects as of 21-Apr-2021
HD Live streaming from Space Station
objects crossing your sky now

COSMOS 642

Track COSMOS 642 now!
10-day predictions
COSMOS 642 is classified as:


NORAD ID: 7266
Int'l Code: 1974-024B
Perigee: 1,325.6 km
Apogee: 1,487.0 km
Inclination: 74.0 °
Period: 113.8 minutes
Semi major axis: 7777 km
RCS: 0.7579 m2 (medium)
Launch date: April 23, 1974
Source: Commonwealth of Independent States (former USSR) (CIS)
Launch site: PLESETSK MISSILE AND SPACE COMPLEX (PKMTR)
aabbcc
Your satellite tracking list
Your tracking list is empty




NASA's NSSDC Master Catalog

Two Line Element Set (TLE):
1 07266U 74024B   21110.93943264 -.00000006  00000-0  58335-4 0  9998
2 07266  74.0183 330.7735 0103757 200.4764 265.9865 12.65793999171404
Source of the keplerian elements: AFSPC